Temperature
23 23 22 22 22 21 21 20 20 20 20 19 19 19 19 18 18 17 17 16 16 16 16 16 15 15 16 15 15 16 16 16 17 16 17 17 18 17 17 17 17 18 18
23 23 22 22 22 21 21 20 20 20 20 19 19 18 18 18 18 17 16 16 16 16 16 15 15 15 15 15 15 15 15 16 17 17 17 18 19 18 18 18 17 17 18
24 24 23 23 22 21 21 21 20 20 20 20 19 19 18 18 18 17 17 16 16 16 15 15 15 15 15 15 14 15 14 15 16 16 16 17 19 20 19 19 18 17 18
24 24 23 23 22 22 21 20 21 21 20 20 19 19 19 19 18 17 17 16 15 15 15 15 15 15 14 14 14 14 14 14 14 16 16 16 17 18 19 18 18 17 17
23 23 23 23 22 21 21 20 20 20 20 20 20 19 19 18 18 17 16 16 15 15 15 15 14 14 14 14 14 14 14 14 14 15 15 15 15 15 16 18 18 18 17
22 22 21 21 20 20 20 20 20 20 20 20 20 20 19 18 17 17 16 16 16 15 14 14 14 14 14 14 14 14 14 14 14 14 14 15 15 16 16 17 17 18 18
17 17 18 18 18 19 19 19 19 20 20 19 19 19 19 18 17 16 16 16 16 15 14 14 14 14 14 14 14 14 14 14 14 14 14 14 15 16 16 16 17 18 17
15 14 14 15 15 15 16 17 17 19 19 19 19 19 19 17 17 17 16 16 16 15 15 15 14 14 14 13 13 13 13 14 14 14 14 14 15 15 15 16 16 16 16
14 14 13 13 13 13 13 14 14 15 16 17 18 18 18 17 17 16 16 16 15 15 15 15 14 14 14 13 13 13 13 14 14 14 14 14 14 14 15 15 15 15 15
14 14 13 13 13 13 13 13 12 13 14 15 15 16 16 16 16 16 15 15 15 15 15 14 14 13 13 13 13 13 13 13 13 14 14 14 14 14 14 15 15 15 15
14 13 13 12 12 12 12 12 12 12 12 13 13 14 14 14 15 15 15 15 15 14 14 14 13 13 13 13 13 13 13 13 13 13 13 14 14 14 14 14 14 14 14
13 13 13 12 12 11 11 11 11 11 11 11 12 12 13 13 14 14 14 14 14 14 14 14 13 13 12 13 13 13 13 13 13 13 13 13 13 13 13 14 14 14 14
12 12 12 11 11 10 10 10 10 10 10 10 10 11 11 12 12 13 14 14 14 14 13 13 13 13 12 12 13 13 13 13 13 13 13 13 13 13 13 13 13 13 13
10 10 10 10 10 9 9 9 9 9 9 9 9 9 10 10 11 12 13 13 13 13 13 13 13 12 12 12 12 12 12 13 13 13 13 13 13 13 13 13 13 13 13
9 9 9 9 9 9 9 8 8 8 7 8 8 8 9 9 10 11 11 12 12 12 13 13 13 12 12 12 12 12 12 12 12 12 12 12 13 13 12 12 12 12 12
10 11 11 10 10 10 9 9 9 9 8 8 8 8 8 9 9 10 10 11 11 12 12 12 12 12 12 12 12 12 12 12 12 12 12 12 13 13 12 12 12 12 12
12 12 11 11 11 11 11 10 10 10 9 9 9 9 9 9 9 9 10 10 11 11 12 12 12 12 12 12 12 12 12 12 12 12 12 12 12 12 12 12 12 11 11
12 11 11 11 11 10 10 10 10 10 10 10 10 10 9 9 9 9 9 9 10 10 11 11 12 12 12 12 12 12 12 11 11 12 12 12 12 12 12 12 12 12 12
11 10 10 10 10 10 9 9 9 9 9 10 10 10 9 9 9 9 9 9 9 9 10 10 11 11 11 12 12 12 11 11 11 11 11 11 12 12 12 12 12 12 12
10 10 9 9 9 9 9 8 8 8 9 9 9 9 9 9 9 9 9 9 9 9 9 10 10 10 11 12 12 12 11 11 11 11 11 11 11 12 11 11 12 12 11
9 9 9 9 8 8 8 7 7 7 7 8 8 8 8 8 9 8 8 8 9 9 9 9 9 10 10 11 11 11 11 12 12 12 11 11 11 11 11 11 11 11 11
9 9 8 8 7 7 6 6 6 6 6 6 6 6 7 8 8 9 9 8 8 8 8 8 8 9 9 9 11 11 11 11 12 12 11 11 11 11 11 11 11 11 11
9 8 8 7 6 6 5 5 5 5 5 5 5 5 6 7 7 8 8 8 8 9 9 9 8 8 8 8 9 10 11 11 11 11 11 11 11 10 10 10 10 10 10
8 8 7 6 5 5 4 4 4 4 4 4 4 4 5 6 6 7 8 9 9 9 9 8 8 8 8 8 8 10 10 10 11 11 11 10 10 10 9 9 9 10 10
8 7 7 5 4 4 4 4 4 4 4 4 4 4 4 5 5 7 7 8 8 9 8 8 8 8 8 8 8 9 10 10 10 11 10 9 9 9 9 9 9 9 9
7 7 6 4 4 4 4 4 4 4 3 3 3 4 4 4 5 6 7 8 8 8 8 8 8 8 8 8 8 9 10 10 10 10 10 10 10 10 10 10 9 9 9
Wind_Speed
9 8 8 8 8 8 7 6 4 4 3 2 2 2 3 3 3 2 1 1 2 4 5 7 7 7 9 10 12 12 14 13 13 13 15 16 17 17 14 15 15 17 16
9 8 8 8 8 8 7 6 6 5 5 3 2 3 4 4 4 3 1 3 4 5 6 6 8 9 8 11 12 12 13 14 12 12 14 15 15 14 16 15 15 16 14
10 9 9 9 8 8 7 6 5 6 6 5 4 3 4 5 4 4 4 4 5 6 7 8 9 9 10 10 10 12 14 14 14 14 13 12 13 12 11 13 13 13 12
8 8 9 9 8 7 7 7 8 8 7 7 6 5 5 6 6 5 5 5 5 7 7 8 8 8 9 9 10 11 11 13 14 14 14 16 15 13 11 9 11 13 12
7 7 7 6 4 5 6 8 8 9 8 8 7 7 7 6 5 4 4 6 6 5 6 7 8 8 9 10 11 11 12 12 14 14 13 14 14 16 14 13 11 10 11
1 3 6 7 6 7 7 8 8 9 9 9 8 8 8 7 7 6 5 6 5 5 5 7 8 10 10 11 12 12 13 12 14 13 13 13 12 12 13 14 14 12 11
15 15 15 13 12 11 10 10 9 10 9 9 9 9 9 8 9 7 5 6 7 6 6 8 9 10 10 12 13 13 13 13 14 14 13 13 13 13 12 13 13 13 9
17 17 17 17 16 17 16 14 11 9 8 8 8 8 8 8 7 7 6 6 6 6 7 9 9 11 12 12 12 13 13 13 13 15 15 12 13 13 13 14 13 11 10
18 17 17 17 17 17 18 18 16 13 9 6 5 6 8 9 9 8 8 7 6 7 8 9 10 11 12 12 12 11 13 13 13 13 14 13 13 12 12 13 13 12 10
16 17 16 17 16 16 17 17 18 17 16 13 9 6 7 10 11 11 10 8 8 8 9 10 11 12 12 12 12 12 11 11 11 10 12 12 12 12 12 12 12 12 11
15 15 15 16 17 17 17 17 17 17 17 16 15 12 11 10 11 11 11 11 10 10 10 10 10 11 12 12 11 11 10 9 8 7 8 8 9 9 10 11 12 11 10
16 16 15 15 15 16 16 16 16 16 16 16 16 14 13 12 11 12 13 13 13 13 12 11 10 10 11 10 10 9 7 6 5 5 4 5 5 6 6 7 10 10 10
17 17 16 16 15 15 14 14 15 16 17 17 17 16 16 15 14 13 14 14 15 15 14 12 11 10 9 9 9 7 6 6 5 5 5 5 6 5 3 2 1 3 6
14 15 14 13 12 12 12 13 13 14 15 15 16 16 16 17 16 15 15 15 16 17 16 14 12 10 10 9 8 7 5 5 5 5 5 5 5 4 5 5 6 7 8
15 14 13 12 11 11 11 11 11 12 12 12 13 14 14 16 17 16 16 15 15 17 17 15 13 11 10 9 8 7 5 3 3 3 3 4 5 6 6 7 9 11 9
18 18 18 18 17 16 16 16 15 15 14 14 14 13 14 15 15 15 16 15 15 15 16 17 14 13 11 7 4 7 5 2 0 2 2 4 8 12 13 13 13 12 11
21 22 22 22 21 21 20 20 19 18 16 16 16 15 15 15 15 16 15 15 14 14 14 16 16 15 12 13 10 7 6 4 2 2 3 6 9 11 13 14 15 13 11
24 24 24 24 23 23 23 23 23 21 20 19 18 18 17 17 17 16 15 14 13 12 12 14 16 15 14 15 12 9 9 6 4 3 4 7 9 9 11 12 13 12 10
25 25 25 26 25 25 24 24 23 22 22 21 21 20 19 19 18 17 16 15 13 13 12 11 13 15 14 16 15 12 10 8 7 6 6 8 9 7 8 11 13 13 11
25 25 26 26 25 24 23 23 24 23 23 23 22 22 20 19 19 18 17 15 14 14 13 10 10 12 13 16 17 15 11 9 9 8 7 7 9 6 3 10 12 12 11
26 26 25 23 22 21 22 24 24 23 23 23 23 23 21 20 19 18 16 15 15 15 13 11 7 6 9 13 18 17 11 10 10 10 9 8 11 8 3 6 10 12 12
27 27 25 24 22 21 21 24 24 23 21 21 22 23 22 21 19 17 16 15 15 15 14 11 7 2 4 6 14 17 14 7 9 9 9 10 13 11 8 8 11 11 10
26 26 26 26 25 23 22 24 24 22 21 20 21 22 23 20 19 17 16 15 14 14 12 9 7 4 1 4 8 15 13 6 6 8 14 16 16 15 11 12 10 8 7
26 26 26 26 25 23 22 22 23 22 21 21 20 18 18 19 18 15 14 14 13 12 11 8 7 6 5 3 7 11 11 10 11 12 15 15 12 11 12 10 7 6 6
27 26 24 24 25 24 23 22 22 20 21 21 20 17 16 17 16 14 12 12 11 8 7 7 6 8 9 9 10 11 14 13 13 15 13 13 12 12 11 9 8 7 7
27 27 25 24 25 25 24 22 21 20 19 18 17 15 13 12 13 13 12 13 12 6 7 8 8 8 9 13 12 12 14 18 19 16 14 13 13 12 11 10 9 9 9
Wind_Direction
157 150 142 140 139 138 141 150 162 160 180 187 264 283 296 306 307 304 327 312 336 343 323 313 314 296 290 289 285 278 269 260 258 262 265 261 255 248 240 237 240 241 243
165 160 160 157 152 148 146 151 161 163 182 183 235 271 304 300 316 303 271 295 319 319 312 316 299 292 286 274 271 269 272 270 262 258 266 267 262 249 243 235 232 237 240
179 173 176 174 172 170 171 170 175 186 202 204 226 227 240 259 266 269 269 308 318 316 316 305 298 291 278 274 274 274 268 269 266 255 254 263 264 267 252 233 233 235 237
183 182 190 193 192 194 193 193 201 213 215 219 242 268 292 306 314 300 305 315 303 310 313 306 298 290 286 282 275 270 270 267 266 261 250 251 265 270 267 245 232 227 227
195 210 222 226 233 238 234 223 219 226 229 231 233 246 264 279 278 277 283 291 299 299 307 305 300 294 292 294 290 284 274 267 264 264 260 252 248 248 253 257 249 228 220
232 299 310 312 308 297 281 263 249 245 240 236 238 239 254 257 259 254 281 290 303 301 305 306 302 297 297 294 287 282 275 271 270 268 264 259 253 245 240 245 248 244 230
28 20 11 2 351 336 318 298 280 269 259 246 242 237 238 237 235 247 261 287 304 309 316 311 303 300 299 296 291 283 278 275 270 265 262 259 256 254 251 249 251 250 239
44 38 30 26 21 13 3 350 329 305 282 257 241 232 229 234 232 227 261 275 291 300 308 298 297 297 297 297 294 288 281 274 270 266 263 261 258 253 247 244 246 246 239
39 35 28 24 20 17 14 9 2 354 342 310 263 238 230 237 235 223 231 253 263 275 280 289 293 293 295 296 296 287 284 278 271 268 264 257 255 252 248 243 238 235 234
26 23 17 12 9 7 7 6 5 2 1 356 338 304 264 243 237 235 238 248 256 261 268 277 286 291 294 295 291 285 281 281 279 274 269 264 258 251 245 238 232 227 232
12 9 6 2 359 358 357 356 355 353 354 354 350 342 322 294 268 255 252 249 249 248 250 261 277 286 290 293 290 290 297 293 296 296 285 276 273 266 256 246 236 226 218
356 355 355 352 350 350 349 348 346 344 341 339 337 337 333 325 311 292 277 263 254 248 246 252 266 276 281 285 286 293 300 300 306 315 321 323 311 297 282 259 239 226 211
340 339 340 340 339 339 338 337 336 337 335 331 327 326 326 327 326 320 304 281 263 252 248 245 254 262 267 273 278 288 293 291 298 308 322 333 341 353 7 5 184 178 163
316 318 320 322 323 321 320 321 323 324 322 322 319 318 319 320 321 320 314 298 276 259 247 241 242 244 249 255 262 273 282 291 305 313 317 329 345 18 69 78 93 100 106
298 295 291 288 284 280 278 277 279 281 284 290 295 300 306 309 312 313 310 305 291 270 253 241 232 228 232 238 240 251 255 277 315 331 338 14 40 59 90 104 104 104 103
297 298 296 294 289 283 279 275 269 262 256 265 273 275 282 289 292 295 297 299 298 284 263 244 231 221 221 168 205 260 234 238 302 41 54 101 104 96 90 97 101 111 122
306 308 308 307 306 302 298 294 288 282 277 275 278 275 273 278 281 285 292 299 302 298 277 252 236 223 204 167 197 238 240 218 152 91 70 90 106 121 116 106 100 88 81
312 310 308 306 304 303 301 300 297 290 284 281 282 279 277 279 281 281 285 292 298 298 290 268 245 227 201 177 192 209 227 216 182 143 119 112 117 118 124 123 111 96 74
308 307 305 303 303 302 301 299 296 291 284 281 281 279 278 278 276 275 278 283 289 292 288 282 262 236 203 178 185 202 211 205 190 167 145 132 121 110 123 125 118 107 91
308 307 306 304 302 301 301 299 297 294 290 289 289 284 277 275 272 270 273 275 280 282 281 277 271 251 219 182 183 201 209 190 178 161 140 103 119 126 152 144 134 124 118
307 307 305 303 303 303 300 295 292 291 291 290 290 286 279 274 267 264 264 266 269 275 278 273 265 262 248 186 183 199 212 188 185 173 165 134 122 120 112 157 143 135 133
307 307 306 305 304 301 297 292 290 291 291 289 289 285 279 273 268 264 259 257 261 265 268 267 252 239 283 233 194 196 222 238 188 172 152 130 125 115 108 117 121 134 149
306 307 307 306 305 301 296 290 289 288 284 281 283 282 276 269 265 264 261 254 248 253 261 259 241 196 189 268 215 194 204 226 181 137 114 126 128 121 110 118 135 160 157
306 306 307 306 304 300 293 286 286 284 280 277 275 273 272 267 260 255 252 250 248 250 256 257 236 196 166 219 226 194 180 151 132 123 122 129 134 122 118 142 166 177 157
306 306 306 304 301 298 292 288 287 284 278 276 272 264 258 261 261 254 248 254 254 256 261 257 227 196 188 196 212 192 174 167 151 144 147 150 150 150 157 163 165 154 150
306 307 308 305 300 297 293 292 290 285 278 272 266 261 253 246 249 252 247 227 231 185 200 230 225 209 190 170 180 191 166 152 151 158 160 161 161 161 161 159 157 158 156
Height
1503 1505 1507 1509 1511 1512 1514 1516 1518 1518 1518 1519 1519 1518 1517 1515 1514 1513 1511 1510 1509 1508 1507 1507 1505 1504 1503 1502 1501 1500 1499 1497 1497 1495 1492 1490 1490 1488 1488 1489 1491 1494 1497
1502 1504 1506 1508 1510 1512 1514 1515 1516 1517 1517 1517 1517 1516 1515 1514 1513 1511 1509 1508 1507 1505 1504 1501 1500 1498 1496 1494 1493 1492 1491 1491 1491 1489 1487 1484 1483 1481 1482 1483 1483 1485 1489
1501 1504 1506 1508 1510 1512 1513 1514 1515 1516 1516 1515 1516 1514 1513 1511 1511 1509 1508 1506 1503 1501 1499 1496 1494 1491 1489 1488 1486 1485 1484 1483 1483 1483 1482 1479 1475 1475 1475 1475 1476 1478 1480
1502 1504 1506 1508 1510 1511 1512 1513 1513 1514 1514 1514 1514 1513 1512 1510 1508 1507 1505 1502 1499 1497 1494 1491 1488 1486 1484 1482 1480 1479 1477 1475 1474 1474 1473 1473 1472 1471 1470 1470 1470 1471 1472
1503 1506 1507 1509 1510 1510 1511 1511 1511 1511 1511 1511 1510 1510 1509 1507 1505 1503 1501 1498 1496 1492 1489 1487 1484 1482 1480 1478 1475 1473 1471 1470 1468 1467 1467 1466 1466 1466 1467 1465 1466 1466 1467
1503 1506 1508 1509 1509 1508 1508 1508 1507 1507 1507 1507 1506 1505 1505 1503 1501 1499 1497 1495 1493 1490 1487 1484 1481 1479 1476 1473 1471 1468 1466 1464 1462 1461 1461 1461 1460 1460 1460 1460 1460 1461 1462
1505 1505 1507 1507 1507 1506 1505 1505 1503 1502 1502 1501 1501 1501 1500 1499 1497 1496 1494 1491 1490 1487 1484 1481 1478 1476 1473 1470 1467 1463 1460 1458 1457 1455 1455 1455 1455 1455 1455 1454 1454 1454 1456
1510 1511 1510 1508 1506 1504 1502 1500 1498 1497 1496 1495 1495 1495 1495 1494 1493 1491 1489 1488 1485 1483 1480 1478 1475 1472 1469 1466 1463 1460 1456 1453 1451 1449 1449 1448 1448 1449 1448 1448 1449 1449 1450
1514 1513 1512 1510 1508 1505 1502 1499 1497 1494 1492 1491 1490 1489 1489 1488 1487 1484 1483 1483 1481 1479 1476 1474 1471 1469 1466 1462 1458 1455 1451 1448 1444 1442 1442 1441 1442 1441 1441 1441 1442 1444 1445
1516 1515 1513 1512 1509 1507 1503 1500 1497 1495 1491 1489 1487 1486 1485 1483 1481 1479 1477 1476 1475 1474 1472 1470 1468 1465 1462 1459 1455 1451 1447 1443 1439 1437 1435 1435 1435 1434 1433 1433 1435 1436 1439
1518 1516 1514 1512 1509 1506 1502 1499 1496 1494 1491 1488 1485 1481 1480 1478 1476 1474 1473 1471 1470 1468 1467 1465 1463 1461 1458 1455 1451 1448 1444 1439 1436 1433 1431 1430 1429 1428 1427 1427 1428 1430 1433
1518 1515 1513 1510 1507 1503 1499 1496 1494 1492 1490 1487 1484 1480 1476 1473 1469 1467 1467 1466 1465 1464 1462 1460 1458 1456 1454 1452 1448 1445 1441 1437 1434 1432 1430 1428 1426 1424 1422 1421 1422 1424 1427
1515 1512 1509 1506 1502 1498 1495 1492 1489 1487 1485 1483 1480 1477 1473 1469 1463 1460 1459 1459 1459 1458 1457 1455 1453 1451 1450 1448 1446 1442 1439 1436 1434 1432 1430 1428 1426 1422 1419 1417 1417 1419 1423
1510 1506 1502 1498 1495 1492 1489 1485 1481 1479 1477 1475 1473 1470 1466 1463 1458 1453 1452 1451 1451 1451 1450 1449 1447 1446 1445 1444 1443 1441 1438 1435 1433 1431 1430 1428 1426 1424 1421 1418 1417 1419 1422
1504 1500 1496 1492 1488 1485 1482 1478 1474 1471 1468 1464 1462 1460 1457 1454 1451 1448 1447 1445 1443 1442 1443 1443 1441 1440 1440 1441 1440 1439 1437 1434 1432 1431 1430 1429 1427 1426 1424 1422 1421 1422 1425
1500 1496 1492 1488 1483 1480 1476 1472 1468 1465 1462 1459 1455 1452 1451 1450 1447 1446 1443 1440 1437 1434 1434 1435 1435 1435 1435 1436 1436 1436 1436 1433 1431 1431 1430 1430 1429 1428 1427 1427 1427 1429 1431
1493 1489 1486 1482 1478 1474 1470 1466 1462 1460 1457 1453 1451 1448 1447 1446 1443 1441 1438 1434 1431 1428 1426 1427 1428 1429 1429 1430 1432 1433 1434 1433 1431 1431 1431 1431 1430 1431 1431 1432 1434 1436 1439
1488 1483 1479 1474 1470 1466 1462 1458 1454 1451 1448 1445 1443 1441 1440 1438 1436 1434 1431 1428 1425 1422 1420 1420 1421 1422 1423 1425 1427 1430 1431 1432 1431 1431 1432 1432 1433 1435 1436 1437 1438 1441 1443
1482 1477 1472 1467 1462 1458 1454 1449 1445 1442 1439 1437 1434 1432 1430 1428 1427 1426 1424 1422 1420 1418 1416 1413 1413 1415 1417 1419 1423 1426 1429 1430 1430 1430 1432 1433 1435 1437 1439 1440 1441 1443 1446
1475 1469 1464 1459 1454 1449 1445 1440 1436 1432 1429 1427 1425 1423 1421 1419 1418 1417 1417 1416 1414 1413 1410 1407 1406 1407 1410 1414 1418 1422 1426 1428 1428 1429 1431 1433 1435 1438 1440 1442 1443 1445 1447
1466 1461 1455 1450 1445 1441 1436 1430 1426 1422 1419 1417 1414 1412 1411 1410 1409 1409 1409 1409 1408 1406 1405 1402 1399 1399 1403 1407 1413 1418 1422 1425 1426 1428 1430 1432 1434 1437 1440 1443 1445 1446 1449
1457 1452 1445 1439 1435 1431 1425 1419 1415 1412 1409 1406 1403 1401 1400 1400 1399 1399 1400 1400 1400 1399 1398 1396 1394 1392 1395 1400 1407 1414 1418 1422 1425 1426 1428 1430 1433 1436 1440 1443 1445 1448 1451
1448 1442 1435 1428 1423 1419 1414 1407 1402 1400 1397 1394 1391 1390 1389 1389 1390 1391 1391 1392 1392 1392 1391 1390 1389 1389 1391 1394 1401 1409 1415 1419 1422 1424 1426 1429 1433 1437 1441 1444 1447 1450 1453
1439 1432 1425 1417 1410 1406 1401 1395 1390 1387 1384 1381 1378 1377 1377 1378 1380 1382 1383 1384 1384 1385 1384 1384 1384 1385 1386 1390 1397 1404 1411 1416 1420 1422 1425 1429 1433 1437 1441 1445 1448 1451 1453
1429 1422 1414 1405 1398 1392 1387 1383 1379 1375 1371 1368 1366 1366 1366 1367 1370 1372 1374 1376 1378 1379 1379 1379 1380 1382 1383 1386 1393 1400 1407 1412 1418 1421 1425 1430 1433 1438 1442 1445 1448 1450 1452
1418 1410 1402 1394 1386 1379 1374 1370 1366 1362 1357 1354 1353 1354 1355 1357 1360 1363 1366 1368 1371 1372 1374 1375 1376 1379 1380 1383 1389 1397 1405 1410 1416 1421 1426 1430 1433 1438 1442 1445 1447 1450 1453